[[{"header":{"parameterUnit":"m.s-1","parameterCategory":1,"la1":30.2991,"la2":30.254,"lo1":-89.0895,"lo2":-89.0444,"dy":0.0017,"dx":0.0017,"nx":28,"ny":28,"refTime":"2025-05-23T03:00:00:Z","depth":0,"parameterNumber":2,"parameterNumberName":"U-component_of_WINDS"},"data":[0,0,0,0,0,0,0,0,0,0,0,0,0,0,0,0,0,0,0,0,0,0,0,0,0,0,0,0,0,0,0,0,0,0,0,0,0,0,0,0,0,0,0,0,0,0,0,0,0,0,0,0,0,0,0,0,0,0,-0.3369,-0.3368,0,-0.3293,-0.3292,-0.3291,-0.3256,-0.3257,-0.3257,-0.3257,-0.3181,-0.3179,-0.3177,0,0,0,0,0,0,0,0,0,0,0,0,0,-0.3485,-0.3483,-0.3369,-0.3368,-0.3367,-0.3293,-0.3292,-0.3291,-0.3256,-0.3257,-0.3257,-0.3257,-0.3181,-0.3179,-0.3177,0,0,0,0,0,0,0,0,0,0,0,0,0,-0.3425,-0.3483,-0.3369,-0.3341,-0.3337,-0.3293,-0.3292,-0.3291,-0.3256,-0.3257,-0.3257,-0.3257,-0.3182,-0.3179,-0.3176,-0.3155,0,0,-0.3167,-0.3165,0,0,0,0,0,0,0,0,-0.3428,-0.3421,-0.3346,-0.3342,-0.3339,-0.3284,-0.3305,-0.3245,-0.3256,-0.3287,-0.3257,-0.3257,-0.3215,-0.3209,-0.3195,-0.3152,-0.3148,-0.3166,-0.3165,-0.3163,-0.3162,0,0,0,0,0,0,0,-0.3432,-0.3424,-0.3339,-0.3345,-0.334,-0.3332,-0.3324,-0.3294,-0.3252,-0.3284,-0.3282,-0.3273,-0.3213,-0.3198,-0.3193,-0.3147,-0.3166,-0.3164,-0.3162,-0.3161,-0.3084,-0.3083,0,0,0,0,0,0,-0.3441,-0.3427,-0.3341,-0.3337,-0.3384,-0.333,-0.3321,-0.3302,-0.3252,-0.3244,-0.3273,-0.3272,-0.3203,-0.3197,-0.319,-0.3163,-0.3163,-0.316,-0.3159,-0.3084,-0.3084,-0.3083,0,0,0,0,0,0,-0.3444,-0.3434,-0.3344,-0.3381,-0.3369,-0.3328,-0.3307,-0.33,-0.3285,-0.3243,-0.3236,-0.3265,-0.3203,-0.3195,-0.3164,-0.3159,-0.3159,-0.3156,-0.3084,-0.3084,-0.3083,-0.3107,0,0,0,0,0,0,-0.3447,-0.3435,-0.3426,-0.3381,-0.3367,-0.3319,-0.3307,-0.3299,-0.3279,-0.3277,-0.3234,-0.3227,-0.3203,-0.3169,-0.3161,-0.3155,-0.3154,-0.3084,-0.3084,-0.3084,-0.3107,-0.3108,-0.3109,0,0,0,0,0,-0.3451,-0.3436,-0.3425,-0.3415,-0.3355,-0.3319,-0.3311,-0.3283,-0.3279,-0.327,-0.3244,-0.3228,-0.3161,-0.3166,-0.3157,-0.315,-0.3084,-0.3084,-0.3084,-0.3106,-0.3107,-0.3109,0,0,0,0,0,0,-0.3481,-0.3429,-0.3417,-0.3387,-0.3357,-0.3313,-0.3301,-0.3285,-0.3256,-0.3255,-0.3222,-0.3213,-0.3186,-0.3165,-0.3171,-0.3128,-0.3122,-0.3119,-0.3142,-0.3143,-0.3144,-0.3149,-0.3151,0,0,0,0,0,-0.3485,-0.3458,-0.3415,-0.3392,-0.3378,-0.3342,-0.3325,-0.3306,-0.3274,-0.3262,-0.3233,-0.3204,-0.3176,-0.3158,-0.3131,-0.3104,-0.3094,-0.3094,-0.3096,-0.3097,-0.3095,-0.308,-0.3079,-0.3082,-0.3082,-0.3082,0,0,-0.3491,-0.3459,-0.3445,-0.3397,-0.3372,-0.3347,-0.3332,-0.3305,-0.3286,-0.3258,-0.3227,-0.3205,-0.317,-0.3142,-0.3128,-0.3124,-0.3092,-0.3096,-0.3097,-0.3095,-0.3079,-0.3079,-0.3079,-0.3082,-0.3082,-0.3082,0,0,-0.3488,-0.3462,-0.344,-0.3415,-0.3377,-0.3353,-0.3348,-0.3306,-0.329,-0.3259,-0.3237,-0.3215,-0.3168,-0.3144,-0.3125,-0.3115,-0.31,-0.3107,-0.3112,-0.3098,-0.3098,-0.3097,-0.3094,-0.3093,-0.3106,-0.3106,-0.3106,0,-0.3501,-0.3461,-0.3431,-0.3405,-0.3385,-0.3359,-0.3337,-0.3314,-0.327,-0.3257,-0.3253,-0.3194,-0.3168,-0.3134,-0.3131,-0.3117,-0.3111,-0.3112,-0.31,-0.3099,-0.3099,-0.3095,-0.3093,-0.3107,-0.3107,-0.3107,-0.3107,0,-0.3478,-0.3451,-0.3438,-0.3394,-0.3373,-0.335,-0.3317,-0.3299,-0.3283,-0.326,-0.3229,-0.3197,-0.3163,-0.3153,-0.3137,-0.3117,-0.3115,-0.3106,-0.3099,-0.31,-0.3096,-0.3094,-0.3108,-0.3108,-0.3108,-0.3107,0,0,-0.3492,-0.3433,-0.3428,-0.3409,-0.3365,-0.3344,-0.332,-0.3286,-0.3271,-0.3242,-0.3221,-0.3182,-0.3174,-0.3153,-0.3134,-0.3121,-0.3115,-0.3113,-0.3112,-0.3114,-0.3091,-0.3098,-0.3097,-0.3105,-0.3105,-0.3104,-0.3094,0,-0.3484,-0.3438,-0.341,-0.3376,-0.3351,-0.3326,-0.3305,-0.3276,-0.3255,-0.3231,-0.3207,-0.318,-0.3171,-0.3158,-0.3144,-0.3119,-0.311,-0.3119,-0.3086,-0.3085,-0.3095,-0.3095,-0.3102,-0.3093,-0.3092,-0.3092,-0.3092,0,-0.3467,-0.3438,-0.3401,-0.3361,-0.3349,-0.333,-0.3297,-0.3274,-0.3242,-0.3227,-0.3205,-0.3185,-0.316,-0.3156,-0.312,-0.3127,-0.3112,-0.3097,-0.3096,-0.3092,-0.3088,-0.309,-0.309,-0.3089,-0.3089,-0.3089,-0.3089,0,-0.3481,-0.3432,-0.3404,-0.3388,-0.334,-0.3328,-0.3308,-0.3275,-0.3257,-0.3228,-0.3216,-0.3185,-0.3168,-0.3145,-0.3118,-0.3118,-0.3085,-0.3079,-0.3073,-0.3073,-0.3066,-0.3067,-0.3064,-0.3057,-0.3057,-0.3057,-0.3057,0,-0.3474,-0.3453,-0.3409,-0.3392,-0.3367,-0.3337,-0.3313,-0.3291,-0.3263,-0.3241,-0.3218,-0.3199,-0.3164,-0.3141,-0.312,-0.3094,-0.3086,-0.3074,-0.3069,-0.3076,-0.3077,-0.3065,-0.3065,-0.3057,-0.3057,-0.3057,-0.3057,0,-0.3485,-0.3455,-0.3422,-0.338,-0.3369,-0.3353,-0.3317,-0.3299,-0.3277,-0.325,-0.3242,-0.3206,-0.3178,-0.3149,-0.311,-0.3096,-0.307,-0.3063,-0.3081,-0.3078,-0.3073,-0.3074,-0.3061,-0.3058,-0.3055,-0.3055,-0.3055,0,-0.3482,-0.3465,-0.3421,-0.3404,-0.3384,-0.3358,-0.3339,-0.3309,-0.329,-0.3252,-0.324,-0.3209,-0.3183,-0.3138,-0.3109,-0.308,-0.3072,-0.307,-0.3067,-0.3075,-0.3072,-0.3073,-0.3071,-0.307,-0.3071,-0.3071,-0.3071,0,-0.3481,-0.3467,-0.344,-0.3407,-0.3385,-0.3358,-0.3331,-0.3319,-0.3284,-0.3264,-0.3234,-0.3214,-0.3174,-0.3144,-0.3112,-0.3092,-0.3076,-0.3072,-0.3069,-0.3076,-0.3087,-0.3081,-0.3083,-0.3072,-0.3072,-0.3072,-0.3072,-0.3072,-0.3485,-0.3468,-0.3434,-0.3405,-0.3381,-0.3356,-0.3338,-0.3313,-0.3287,-0.3252,-0.3236,-0.3206,-0.3175,-0.3129,-0.311,-0.3086,-0.3082,-0.3078,-0.3076,-0.3076,-0.3077,-0.3091,-0.308,-0.308,-0.308,-0.308,-0.308,0,-0.3482,-0.3459,-0.3432,-0.3394,-0.3371,-0.3358,-0.3327,-0.3309,-0.3283,-0.3255,-0.323,-0.3196,-0.3167,-0.3136,-0.3106,-0.3093,-0.3085,-0.3086,-0.3086,-0.3082,-0.3083,-0.3089,-0.3093,-0.3093,-0.3093,-0.3093,-0.3093,-0.3093,-0.3478,-0.3449,-0.3431,-0.3391,-0.3368,-0.3338,-0.3322,-0.3299,-0.3277,-0.3239,-0.3215,-0.3195,-0.3166,-0.3134,-0.3107,-0.3099,-0.3088,-0.3092,-0.3081,-0.3083,-0.3082,-0.3081,-0.3086,-0.309,-0.309,-0.3082,-0.3082,-0.3082]},{"header":{"parameterUnit":"m.s-1","parameterCategory":1,"la1":30.2991,"la2":30.254,"lo1":-89.0895,"lo2":-89.0444,"dy":0.0017,"dx":0.0017,"nx":28,"ny":28,"refTime":"2025-05-23T03:00:00:Z","depth":0,"parameterNumber":3,"parameterNumberName":"V-component_of_WINDS"},"data":[0,0,0,0,0,0,0,0,0,0,0,0,0,0,0,0,0,0,0,0,0,0,0,0,0,0,0,0,0,0,0,0,0,0,0,0,0,0,0,0,0,0,0,0,0,0,0,0,0,0,0,0,0,0,0,0,0,0,4.6939,4.6938,0,4.6918,4.6918,4.6918,4.6856,4.6855,4.6854,4.6852,4.6831,4.6832,4.6833,0,0,0,0,0,0,0,0,0,0,0,0,0,4.6926,4.6926,4.6939,4.6938,4.6938,4.6918,4.6918,4.6918,4.6856,4.6855,4.6853,4.6852,4.6831,4.6832,4.6833,0,0,0,0,0,0,0,0,0,0,0,0,0,4.6921,4.6926,4.6939,4.6905,4.6902,4.6918,4.6918,4.6918,4.6857,4.6855,4.6853,4.6851,4.6831,4.6832,4.6833,4.688,0,0,4.6836,4.6836,0,0,0,0,0,0,0,0,4.6921,4.6921,4.691,4.6908,4.6904,4.6888,4.6905,4.6905,4.6857,4.6874,4.6852,4.685,4.6852,4.6851,4.6851,4.6879,4.6878,4.6836,4.6837,4.6837,4.6837,0,0,0,0,0,0,0,4.6922,4.6922,4.693,4.691,4.6906,4.6891,4.6889,4.6905,4.6874,4.6872,4.6868,4.6866,4.6849,4.6851,4.685,4.6877,4.6836,4.6837,4.6838,4.6838,4.6944,4.6946,0,0,0,0,0,0,4.6927,4.6923,4.6931,4.693,4.6908,4.6893,4.689,4.6895,4.6874,4.6869,4.6868,4.6864,4.685,4.6849,4.685,4.6904,4.6837,4.6838,4.6839,4.6942,4.6945,4.6947,0,0,0,0,0,0,4.6927,4.6928,4.6932,4.6925,4.6924,4.6896,4.6902,4.6896,4.6897,4.6871,4.6865,4.6875,4.6848,4.6848,4.6873,4.6903,4.6839,4.684,4.6939,4.6943,4.6946,4.7014,0,0,0,0,0,0,4.6926,4.6928,4.6946,4.6926,4.6925,4.6956,4.6903,4.6897,4.6899,4.6892,4.6876,4.6871,4.6847,4.6872,4.6874,4.6903,4.684,4.6937,4.6941,4.6945,4.7009,4.7019,4.7028,0,0,0,0,0,4.6926,4.6965,4.6947,4.6948,4.6946,4.6958,4.6957,4.6928,4.6901,4.6919,4.6902,4.6871,4.6899,4.6875,4.6877,4.6907,4.6935,4.694,4.6944,4.7004,4.7017,4.7027,0,0,0,0,0,0,4.6988,4.6962,4.6941,4.6975,4.6969,4.6947,4.6968,4.6942,4.6944,4.6938,4.6902,4.6899,4.693,4.692,4.6894,4.6952,4.6912,4.6917,4.6957,4.6968,4.6978,4.6979,4.6841,0,0,0,0,0,4.7006,4.7018,4.6994,4.7026,4.7024,4.6997,4.7001,4.6979,4.6972,4.6969,4.6954,4.6948,4.6956,4.6961,4.6967,4.7007,4.7003,4.7028,4.7038,4.7046,4.7051,4.7073,4.7085,4.6963,4.6963,4.6963,0,0,4.7043,4.703,4.7039,4.7038,4.7031,4.7044,4.6995,4.7011,4.702,4.6971,4.6994,4.6984,4.6975,4.7008,4.7022,4.7001,4.7084,4.7052,4.7059,4.706,4.708,4.7091,4.7101,4.6966,4.6966,4.6965,0,0,4.7116,4.7107,4.7134,4.7128,4.7118,4.71,4.7107,4.7089,4.708,4.7103,4.7067,4.7078,4.7091,4.7087,4.7086,4.716,4.7132,4.7163,4.7212,4.7234,4.7244,4.7252,4.728,4.729,4.7168,4.7168,4.7168,0,4.7163,4.7182,4.715,4.7169,4.717,4.7127,4.7154,4.715,4.7142,4.7144,4.7121,4.7138,4.7129,4.7161,4.718,4.718,4.7187,4.7165,4.7245,4.7253,4.726,4.7286,4.7297,4.7172,4.7172,4.7171,4.7171,0,4.724,4.7254,4.7276,4.7271,4.7274,4.7297,4.727,4.7278,4.7256,4.7241,4.7265,4.7253,4.7256,4.7262,4.7241,4.7292,4.7279,4.7251,4.7211,4.7276,4.73,4.731,4.7178,4.7176,4.7175,4.7174,0,0,4.7352,4.733,4.7339,4.7337,4.7324,4.7333,4.7355,4.7358,4.7366,4.7362,4.738,4.7393,4.7367,4.7367,4.7345,4.7364,4.7425,4.7334,4.7333,4.7352,4.7482,4.7504,4.7516,4.7406,4.7408,4.741,4.7483,0,4.7423,4.7458,4.7431,4.7471,4.7484,4.7444,4.7462,4.7457,4.7443,4.7452,4.7437,4.7448,4.7412,4.7412,4.7429,4.7414,4.7451,4.7408,4.7423,4.7424,4.7428,4.7528,4.7551,4.7621,4.7492,4.7494,4.7495,0,4.751,4.7511,4.7553,4.7538,4.7543,4.756,4.7562,4.757,4.7564,4.7552,4.7553,4.7527,4.7547,4.7507,4.7535,4.7507,4.7512,4.7505,4.7507,4.7508,4.7464,4.7533,4.7643,4.7654,4.7509,4.7508,4.7507,0,4.7589,4.7601,4.7628,4.7627,4.761,4.7624,4.7617,4.7608,4.7613,4.7614,4.7616,4.762,4.7622,4.7626,4.7602,4.7574,4.7634,4.7591,4.7626,4.7627,4.764,4.764,4.7754,4.7642,4.7642,4.7642,4.7642,0,4.7671,4.7699,4.7663,4.768,4.771,4.7679,4.771,4.7699,4.7692,4.7706,4.7671,4.7685,4.7652,4.7663,4.7644,4.7671,4.7672,4.7664,4.7659,4.7668,4.7669,4.7671,4.7666,4.7645,4.7644,4.7644,4.7643,0,4.7765,4.7742,4.7769,4.7751,4.7748,4.7771,4.7756,4.7771,4.7755,4.7774,4.7777,4.7752,4.7764,4.774,4.7747,4.7735,4.7774,4.776,4.7776,4.7773,4.7809,4.7806,4.7928,4.7943,4.7822,4.7823,4.7824,0,4.7819,4.7839,4.7824,4.7832,4.7828,4.7839,4.7844,4.7815,4.7821,4.7815,4.7831,4.784,4.7845,4.7865,4.7848,4.7854,4.7841,4.7884,4.7842,4.7851,4.7843,4.7843,4.7845,4.7893,4.7894,4.7895,4.7896,0,4.7919,4.7907,4.7914,4.7919,4.7925,4.7927,4.7926,4.7934,4.7903,4.7912,4.7923,4.7927,4.7936,4.7945,4.7948,4.7941,4.7914,4.791,4.7918,4.7928,4.7937,4.7934,4.7801,4.7907,4.7906,4.7905,4.7905,4.7904,4.7995,4.8012,4.8004,4.8014,4.8011,4.8011,4.8025,4.8012,4.8021,4.8026,4.8008,4.8024,4.8017,4.8018,4.8015,4.8027,4.8008,4.802,4.8023,4.8027,4.8033,4.7934,4.8027,4.8027,4.8026,4.8026,4.8026,0,4.8094,4.8087,4.8097,4.8097,4.8106,4.8079,4.8078,4.8086,4.8101,4.8097,4.8103,4.8117,4.8126,4.8111,4.8118,4.8131,4.8119,4.8133,4.8133,4.8132,4.8049,4.8042,4.8143,4.8143,4.8143,4.8143,4.8143,4.8143,4.8146,4.8174,4.8161,4.8187,4.818,4.8196,4.8197,4.8198,4.8195,4.8212,4.822,4.8209,4.8201,4.8207,4.8215,4.821,4.8215,4.8234,4.8226,4.8149,4.8138,4.8127,4.8119,4.8235,4.8236,4.8307,4.8308,4.8308]}]]